Rogers City, MI

11:20 AM EDT on October 17, 2017 (GMT -0400)
Presque Isle County

Weather History for KPZQ - June, 2013

Change the Weather History Date:

Saturday, June 22, 2013

  Actual Average (KAPN) Record (KAPN)
Temperature  
Mean Temperature 64 °F -  
Max Temperature 69 °F 75 °F 93 °F (1975)
Min Temperature 58 °F 50 °F 34 °F (1934)
Degree Days  
Heating Degree Days 2    
Growing Degree Days 14 (Base 50)    
Moisture  
Dew Point 60 °F    
Average Humidity 88    
Maximum Humidity 96    
Minimum Humidity 77    
Precipitation  
Precipitation 0.00 in - - ()
Sea Level Pressure  
Sea Level Pressure 30.04 in    
Wind  
Wind Speed 4 mph (NW)    
Max Wind Speed 10 mph    
Max Gust Speed 17 mph    
Visibility 7 miles    
Events Rain    
Averages and records for this station are not official NWS values.
T = Trace of Precipitation, MM = Missing Value Source: NWS Daily Summary

Daily Weather History Graph

Daily Weather History Graph

Search for Another Location

Airport or City:

Trip Planner

Search our weather history database for the weather conditions in past years. The results will help you decide how hot, cold, wet, or windy it might be!

Date:

Astronomy

Jun. 22, 2013 Rise Set
Actual Time 5:47 AM EDT 9:27 PM EDT
Civil Twilight 5:09 AM EDT 10:05 PM EDT
Nautical Twilight 4:18 AM EDT 10:56 PM EDT
Astronomical Twilight 3:09 AM EDT 12:04 AM EDT
Moon 8:37 PM EDT (6/22) 5:02 AM EDT (6/22)
Length of Visible Light 16h 56m
Length of Day
15h 40m
Waxing Gibbous, 99% of the Moon is Illuminated
Jun 22
Waxing Gibbous
Jun 23
Full
Jun 30
Last Quarter
Jul 8
New
Jul 15
First Quarter

Hourly Weather History & Observations

Time (EDT) Temp. Dew Point Humidity Pressure Visibility Wind Dir Wind Speed Gust Speed Precip Events Conditions
12:15 AM 66.6 °F 62.1 °F 85% 29.98 in 10.0 mi Calm Calm - N/A   Mostly Cloudy
12:34 AM 65.8 °F 61.5 °F 86% 29.99 in 10.0 mi North 5.8 mph - N/A   Overcast
12:55 AM 65.8 °F 60.8 °F 84% 29.99 in 10.0 mi Calm Calm - N/A   Overcast
1:15 AM 65.7 °F 59.9 °F 82% 30.00 in 10.0 mi WNW 3.5 mph - N/A   Overcast
1:35 AM 65.1 °F 60.1 °F 84% 30.00 in 10.0 mi Calm Calm - N/A Rain Light Rain
1:55 AM 64.2 °F 59.9 °F 86% 30.00 in 10.0 mi Calm Calm - N/A   Overcast
2:15 AM 63.5 °F 59.5 °F 87% 30.00 in 7.0 mi Calm Calm - N/A   Overcast
2:35 AM 62.8 °F 59.4 °F 89% 29.99 in 7.0 mi Calm Calm - N/A   Overcast
2:55 AM 62.2 °F 59.4 °F 90% 29.99 in 5.0 mi NNW 4.6 mph - N/A Rain Light Rain
3:15 AM 61.3 °F 59.0 °F 92% 29.97 in 4.0 mi Calm Calm - N/A   Overcast
3:35 AM 61.5 °F 59.4 °F 93% 29.97 in 2.5 mi Calm Calm - N/A   Light Drizzle
3:55 AM 62.2 °F 60.1 °F 93% 29.98 in 4.0 mi Calm Calm - N/A   Overcast
4:15 AM 61.9 °F 60.1 °F 94% 29.96 in 3.0 mi SSW 3.5 mph - N/A   Overcast
4:34 AM 63.0 °F 61.2 °F 94% 29.96 in 5.0 mi SW 3.5 mph - N/A   Overcast
4:55 AM 63.9 °F 62.1 °F 94% 29.97 in 10.0 mi WSW 8.1 mph - N/A   Overcast
5:14 AM 64.0 °F 62.1 °F 93% 29.97 in 10.0 mi WSW 8.1 mph - N/A   Mostly Cloudy
5:35 AM 63.5 °F 61.7 °F 94% 29.97 in 7.0 mi WSW 10.4 mph 17.3 mph N/A   Mostly Cloudy
5:54 AM 62.8 °F 61.0 °F 94% 29.98 in 7.0 mi West 8.1 mph - N/A   Overcast
6:15 AM 62.8 °F 60.8 °F 93% 29.99 in 7.0 mi West 3.5 mph - N/A   Overcast
6:35 AM 62.8 °F 60.8 °F 93% 29.99 in 7.0 mi West 5.8 mph - N/A   Overcast
6:54 AM 63.0 °F 60.8 °F 93% 30.01 in 7.0 mi West 8.1 mph - N/A   Overcast
7:15 AM 63.0 °F 60.8 °F 93% 30.01 in 7.0 mi West 6.9 mph - N/A   Overcast
7:35 AM 63.5 °F 60.8 °F 91% 30.02 in 7.0 mi West 5.8 mph - N/A   Overcast
7:54 AM 63.5 °F 60.8 °F 91% 30.03 in 7.0 mi West 3.5 mph - N/A   Overcast
8:15 AM 63.5 °F 60.8 °F 91% 30.03 in 5.0 mi West 5.8 mph - N/A   Overcast
8:35 AM 63.3 °F 60.8 °F 91% 30.04 in 2.0 mi West 6.9 mph - N/A   Overcast
8:55 AM 63.1 °F 60.8 °F 92% 30.05 in 1.8 mi West 5.8 mph - N/A   Overcast
9:15 AM 63.3 °F 61.5 °F 94% 30.05 in 1.2 mi West 3.5 mph - N/A   Light Drizzle
9:35 AM 64.6 °F 62.4 °F 93% 30.05 in 4.0 mi West 5.8 mph - N/A   Overcast
9:55 AM 64.6 °F 61.7 °F 90% 30.06 in 7.0 mi West 5.8 mph - N/A   Overcast
10:15 AM 64.6 °F 61.7 °F 90% 30.07 in 7.0 mi West 5.8 mph - N/A   Overcast
10:34 AM 64.6 °F 61.5 °F 90% 30.07 in 7.0 mi WNW 6.9 mph - N/A   Overcast
10:55 AM 65.1 °F 61.7 °F 89% 30.06 in 7.0 mi WNW 5.8 mph - N/A   Overcast
11:15 AM 65.3 °F 61.7 °F 88% 30.07 in 7.0 mi NW 4.6 mph - N/A   Overcast
11:34 AM 64.2 °F 61.0 °F 89% 30.06 in 7.0 mi NNW 5.8 mph - N/A   Overcast
11:55 AM 64.9 °F 61.0 °F 87% 30.07 in 7.0 mi North 5.8 mph - N/A   Overcast
12:14 PM 65.3 °F 60.8 °F 85% 30.07 in 10.0 mi NNW 6.9 mph - N/A   Overcast
12:35 PM 66.0 °F 61.5 °F 85% 30.08 in 10.0 mi NNW 4.6 mph - N/A   Overcast
12:55 PM 67.1 °F 61.7 °F 83% 30.08 in 7.0 mi NNW 3.5 mph - N/A   Overcast
1:15 PM 66.6 °F 61.2 °F 83% 30.08 in 10.0 mi NNW 10.4 mph - N/A   Overcast
1:35 PM 64.9 °F 60.4 °F 85% 30.07 in 7.0 mi North 5.8 mph - N/A   Overcast
1:54 PM 66.2 °F 61.5 °F 85% 30.07 in 7.0 mi NNW 4.6 mph - N/A   Overcast
2:15 PM 66.6 °F 61.5 °F 84% 30.07 in 7.0 mi North 5.8 mph - N/A   Overcast
2:35 PM 67.1 °F 61.3 °F 82% 30.07 in 7.0 mi NNW 5.8 mph - N/A   Overcast
2:54 PM 67.1 °F 61.2 °F 81% 30.07 in 7.0 mi North 4.6 mph - N/A   Overcast
3:15 PM 68.2 °F 61.5 °F 79% 30.07 in 7.0 mi Calm Calm - N/A   Overcast
3:35 PM 67.6 °F 60.8 °F 79% 30.07 in 7.0 mi North 5.8 mph - N/A   Overcast
3:54 PM 66.2 °F 60.6 °F 82% 30.05 in 7.0 mi NE 3.5 mph - N/A   Overcast
4:15 PM 67.3 °F 60.8 °F 80% 30.05 in 10.0 mi NNE 4.6 mph - N/A   Overcast
4:35 PM 68.0 °F 60.8 °F 78% 30.05 in 10.0 mi NNE 5.8 mph - N/A   Overcast
4:55 PM 69.6 °F 62.1 °F 77% 30.03 in 10.0 mi NE 4.6 mph - N/A   Scattered Clouds
5:15 PM 68.0 °F 61.0 °F 78% 30.04 in 10.0 mi NNE 4.6 mph - N/A   Clear
5:34 PM 68.4 °F 60.8 °F 77% 30.05 in 10.0 mi NNE 5.8 mph - N/A   Clear
5:55 PM 68.0 °F 61.0 °F 78% 30.05 in 10.0 mi North 6.9 mph - N/A   Clear
6:15 PM 66.2 °F 60.3 °F 81% 30.05 in 10.0 mi North 5.8 mph - N/A   Clear
6:34 PM 65.8 °F 60.3 °F 82% 30.05 in 10.0 mi NNE 4.6 mph - N/A   Clear
6:55 PM 66.6 °F 60.8 °F 82% 30.06 in 10.0 mi North 4.6 mph - N/A   Clear
7:15 PM 66.2 °F 60.4 °F 82% 30.06 in 10.0 mi NNE 4.6 mph - N/A   Clear
7:34 PM 65.3 °F 60.3 °F 84% 30.06 in 10.0 mi NNE 3.5 mph - N/A   Clear
7:55 PM 64.6 °F 60.3 °F 86% 30.07 in 7.0 mi North 3.5 mph - N/A   Clear
8:15 PM 64.4 °F 60.6 °F 88% 30.07 in 7.0 mi North 3.5 mph - N/A   Clear
8:35 PM 62.4 °F 59.0 °F 89% 30.07 in 5.0 mi NNE 3.5 mph - N/A   Clear
8:55 PM 61.3 °F 58.6 °F 91% 30.08 in 5.0 mi Calm Calm - N/A   Mostly Cloudy
9:15 PM 61.2 °F 59.0 °F 93% 30.07 in 5.0 mi North 3.5 mph - N/A   Overcast
9:35 PM 60.1 °F 58.1 °F 93% 30.07 in 3.0 mi North 3.5 mph - N/A   Overcast
9:54 PM 59.9 °F 58.1 °F 94% 30.07 in 3.0 mi Calm Calm - N/A   Overcast
10:15 PM 59.2 °F 57.6 °F 94% 30.06 in 3.0 mi Calm Calm - N/A   Scattered Clouds
10:35 PM 58.5 °F 56.8 °F 94% 30.06 in 2.0 mi Calm Calm - N/A   Clear
10:54 PM 58.6 °F 57.2 °F 95% 30.07 in 3.0 mi Calm Calm - N/A   Clear
11:15 PM 60.3 °F 59.0 °F 96% 30.06 in 5.0 mi SSE 3.5 mph - N/A   Clear
11:35 PM 60.6 °F 59.2 °F 95% 30.06 in 5.0 mi SSE 3.5 mph - N/A   Clear
11:54 PM 60.6 °F 59.0 °F 94% 30.06 in 4.0 mi Calm Calm - N/A   Clear